Wind_Speed
21 21 21 21 21 21 21 20 20 20 20 19 19 19 19 19 18 18 18 18 17 17 17 17 17 17 17 17 17 18 18 18 19 19 19 19 20 20 20 20 21 21 21 22 22 23 23 23 24 24 24 25 25 24 24 24 24 24 23 24 25 24 23 23 22 22 22 21 19 18 18 17 18 17 16 16 17 16 17 16 13 13 15 15 15 15 15 15
24 24 24 24 24 24 24 23 23 23 23 23 22 22 22 22 22 22 22 21 21 21 21 21 21 21 21 21 21 21 22 22 22 23 22 22 23 23 23 23 23 23 24 24 24 25 25 25 26 26 26 26 26 26 26 26 26 26 25 25 26 26 25 26 26 25 25 24 23 22 20 19 19 19 18 18 18 18 19 18 15 15 17 17 16 16 17 16
27 27 27 27 27 27 26 26 27 26 26 26 26 25 25 25 25 25 25 25 25 25 25 25 25 25 25 25 25 25 25 26 26 27 25 25 27 26 26 26 26 26 26 26 27 27 27 27 27 28 28 28 28 28 29 29 28 28 27 27 28 28 27 28 28 27 27 27 27 26 24 23 22 21 20 20 20 19 21 21 17 16 18 19 18 18 18 18
30 30 30 30 29 29 29 29 29 29 29 28 28 28 28 28 27 27 27 27 28 28 28 28 28 28 28 28 28 28 28 29 30 30 29 29 30 29 29 29 29 29 29 29 29 29 29 29 29 29 30 30 30 30 31 31 30 29 29 29 29 29 29 29 29 28 30 30 29 28 28 26 25 24 23 23 21 19 24 24 20 18 19 20 20 20 20 19
33 33 32 32 32 32 31 31 31 31 30 30 30 30 30 30 29 29 29 29 29 29 30 30 30 30 30 30 30 30 30 31 31 32 32 31 32 32 32 32 31 31 31 31 31 31 31 31 30 31 31 31 31 31 32 33 31 29 30 30 31 31 30 29 30 30 31 31 30 30 30 29 29 27 26 25 21 20 26 26 23 21 21 22 21 21 21 22
35 34 34 33 33 33 33 32 32 32 31 31 31 31 31 31 31 30 30 30 30 30 31 31 31 31 31 31 31 30 30 32 32 32 32 33 32 33 33 32 32 32 32 32 32 32 32 32 31 32 31 31 31 31 32 33 33 30 29 31 32 32 31 30 31 32 32 32 32 32 32 32 31 29 29 27 22 23 30 29 26 24 23 23 23 22 23 23
35 35 35 34 34 33 33 33 32 32 32 32 31 31 31 31 31 30 30 30 30 30 30 31 31 30 31 30 30 29 29 32 33 31 32 32 32 32 32 32 32 32 32 33 33 32 32 32 32 33 32 31 32 32 33 33 33 32 29 31 33 33 31 30 31 32 33 33 33 34 33 32 33 32 29 27 25 28 32 31 28 25 25 25 24 24 24 23
35 34 34 34 34 33 33 32 32 32 31 31 31 31 31 31 31 30 31 31 30 30 30 31 30 30 29 28 28 26 27 31 32 30 30 30 30 31 31 31 31 31 31 32 32 32 32 32 33 34 33 31 32 32 34 34 34 33 31 32 33 33 32 31 31 31 33 34 35 36 33 32 35 34 29 26 28 31 33 33 29 27 26 26 26 26 26 24
33 33 33 33 33 33 33 32 32 32 32 32 32 32 32 31 31 31 31 31 31 30 30 30 30 30 29 28 27 24 27 31 30 30 29 29 29 29 30 30 30 29 30 30 31 32 32 32 33 34 33 32 33 32 34 35 34 33 33 33 32 32 32 31 31 31 34 35 36 36 33 32 35 35 29 25 30 32 32 33 31 30 28 27 28 28 28 27
32 32 32 32 32 32 32 32 32 32 32 32 32 32 32 31 31 32 32 32 32 31 32 32 32 32 30 29 27 23 28 32 30 29 30 29 29 29 29 29 29 29 29 30 30 31 32 33 34 34 34 33 32 32 34 35 34 34 34 34 32 32 32 30 30 29 34 35 35 37 34 32 34 35 29 26 33 35 33 33 33 33 31 30 30 30 30 30
33 33 33 32 32 32 32 32 32 32 32 32 33 33 33 33 33 33 34 34 34 34 35 35 35 35 34 32 28 25 30 32 30 29 30 29 29 28 28 28 29 29 29 29 30 32 33 34 35 35 35 34 32 32 34 34 35 35 35 34 31 33 31 27 28 30 34 36 35 38 36 32 31 32 28 27 35 37 34 33 33 35 34 33 33 32 32 31
35 35 35 35 35 35 35 34 34 34 34 34 35 35 35 35 35 35 36 37 37 37 38 38 38 38 37 33 29 29 32 31 30 31 31 31 30 29 29 30 30 30 30 30 32 33 34 36 36 36 36 35 33 32 34 34 35 34 35 35 31 32 29 23 27 32 35 36 34 38 38 32 27 27 26 28 36 37 36 34 34 35 35 34 34 34 33 33
37 37 37 37 37 37 37 37 37 37 37 37 38 38 38 38 38 38 38 39 39 39 39 41 41 41 40 34 30 33 34 31 32 33 34 34 33 32 32 32 32 32 32 32 34 35 36 38 39 38 37 36 34 34 35 34 35 34 35 37 32 32 28 20 28 34 34 35 34 38 41 33 24 23 25 29 35 37 36 35 35 36 35 34 35 35 35 34
38 38 38 38 39 38 39 38 38 38 38 39 39 39 39 39 40 39 40 41 41 41 41 42 42 43 42 35 31 34 34 33 33 35 37 36 34 33 32 33 33 33 33 34 36 37 39 40 41 41 38 37 35 36 37 36 36 34 37 38 33 35 30 23 29 33 32 34 35 39 44 37 25 20 22 29 35 37 36 35 35 36 36 35 34 34 35 35
40 40 39 39 39 39 39 38 38 38 38 38 38 39 39 39 39 39 40 41 41 42 43 44 44 44 44 36 32 34 34 34 36 37 37 36 34 32 32 32 33 33 33 34 35 37 39 40 42 42 40 38 37 38 40 40 37 35 38 38 35 39 38 30 29 31 33 35 37 40 44 42 30 20 21 27 31 35 36 34 33 35 36 36 35 33 33 34
41 41 40 40 40 40 39 39 38 38 38 38 38 39 39 39 39 39 41 41 43 43 44 45 44 45 46 38 33 35 35 36 38 38 37 35 34 33 33 33 33 33 34 34 35 36 38 40 41 41 40 37 37 39 43 43 38 35 40 42 39 42 44 38 30 28 33 38 40 42 45 45 35 25 24 27 29 32 35 33 33 34 35 36 34 32 31 33
43 42 42 41 41 40 40 40 40 40 40 40 40 41 41 42 41 41 42 43 45 45 46 47 44 46 47 40 36 36 36 38 39 38 37 36 35 34 34 35 35 36 36 36 36 37 39 40 42 41 39 36 36 40 44 45 40 37 42 46 46 45 46 44 35 28 33 40 43 45 48 47 38 31 29 28 29 32 32 31 31 32 33 33 32 31 31 32
44 44 43 43 42 42 42 42 42 42 42 43 43 43 44 44 44 44 45 45 46 47 48 48 47 49 47 41 40 38 37 39 39 38 37 36 36 36 37 38 38 38 38 38 38 39 40 42 44 43 39 35 34 38 43 43 41 42 45 48 50 48 47 47 40 33 35 42 46 48 51 49 42 37 33 30 30 32 31 29 28 28 29 30 31 32 31 31
46 46 46 45 45 44 44 44 44 44 45 45 46 45 46 47 47 47 47 47 46 46 48 48 48 51 49 44 43 41 39 40 40 39 37 37 38 39 40 40 40 41 40 40 40 41 42 44 46 43 37 34 34 38 42 42 42 45 47 49 51 50 50 48 42 38 39 46 50 50 52 51 47 41 36 32 32 32 30 28 27 26 27 29 30 31 31 32
49 48 48 48 47 47 47 47 47 47 47 47 48 48 48 49 50 50 49 48 47 46 47 47 47 49 50 48 47 45 43 42 42 40 38 39 40 41 41 41 42 43 41 41 43 44 44 47 47 41 35 34 36 40 42 42 43 45 47 49 49 51 51 48 44 41 42 51 55 52 53 52 49 44 38 35 34 32 30 29 29 28 28 28 28 29 30 32
51 51 51 50 50 50 50 49 49 49 49 49 50 50 51 51 51 51 51 50 48 47 47 48 49 48 47 48 49 48 46 45 42 40 39 40 41 42 42 43 44 44 42 43 45 45 46 49 45 37 35 37 40 41 42 43 44 45 47 48 48 49 49 46 45 43 44 52 56 53 54 53 50 47 42 39 37 32 30 30 29 29 30 28 27 28 30 32
53 53 53 53 52 52 52 51 51 51 51 51 51 52 52 53 53 53 53 53 49 49 49 49 49 50 48 48 48 47 47 46 42 40 41 41 42 43 43 45 46 45 44 46 46 45 49 50 42 36 38 41 43 42 42 44 46 47 48 49 50 48 47 46 45 43 45 51 54 54 56 54 50 48 44 41 38 34 32 31 28 28 31 29 28 29 29 31
55 55 55 55 55 54 54 53 53 53 53 53 53 53 53 53 54 54 55 56 53 50 50 50 50 52 50 48 47 46 46 43 41 41 41 41 42 42 45 46 46 47 48 46 45 47 52 50 41 38 42 44 44 43 44 46 47 48 48 50 52 48 47 49 47 45 46 50 52 54 56 54 50 47 45 41 38 34 32 31 28 28 30 29 29 30 29 31
57 57 57 57 56 56 55 55 55 55 55 55 54 54 54 53 53 54 55 57 57 53 50 50 53 54 51 50 48 46 43 41 41 40 39 40 41 42 45 46 47 49 48 44 45 50 52 48 42 43 45 45 45 45 44 45 47 48 48 49 50 48 49 51 51 50 50 50 51 53 55 53 47 45 42 38 37 36 35 34 32 30 31 32 32 32 32 33
59 58 58 57 57 57 56 57 56 56 56 55 54 54 53 53 53 54 55 58 61 57 53 53 54 54 52 50 48 45 44 42 40 38 37 38 39 40 43 45 47 47 45 43 46 52 52 46 43 46 47 45 46 46 43 42 46 49 49 47 47 49 51 52 52 53 53 52 51 52 55 52 46 43 40 36 37 38 36 35 33 30 32 34 33 32 32 34
61 60 59 58 58 58 57 56 56 55 54 54 53 53 53 54 54 55 57 60 62 59 57 57 55 53 50 49 47 46 46 44 40 38 38 37 37 39 42 44 45 44 43 43 47 53 52 44 43 45 46 46 47 47 43 41 47 51 49 46 46 49 51 51 53 53 54 54 54 54 56 54 49 43 40 39 40 39 37 34 31 28 29 33 34 33 33 34
61 60 59 58 58 58 57 56 55 54 53 53 53 53 54 55 55 56 57 61 63 61 60 60 57 54 49 47 47 46 46 44 41 40 38 38 38 39 42 44 43 43 43 45 49 52 48 43 43 43 45 48 49 47 42 42 49 51 48 48 48 49 50 51 52 53 54 54 55 57 57 57 53 45 42 43 43 41 37 32 28 27 26 30 33 32 32 33
62 60 58 57 56 56 57 57 57 56 54 54 54 55 56 56 56 56 56 61 65 63 61 60 57 55 50 47 45 44 45 45 44 43 41 41 41 41 43 43 43 44 43 46 50 49 47 46 46 45 47 49 48 45 44 45 48 50 49 50 51 50 50 51 52 54 54 53 55 56 54 55 54 49 47 47 45 41 36 31 27 25 25 28 30 31 32 34
62 61 60 59 57 57 57 58 58 58 57 56 56 56 57 57 57 56 56 61 65 63 60 57 54 54 52 48 46 45 45 45 46 46 44 44 44 44 44 42 43 44 44 47 49 47 47 47 47 48 49 47 45 45 46 47 49 50 51 51 52 52 52 52 53 53 54 53 54 54 52 53 52 50 50 48 45 43 39 36 32 27 26 28 28 28 30 34
59 60 60 59 57 57 59 60 59 58 58 58 58 58 58 57 56 55 58 62 63 60 56 55 54 52 51 50 49 48 47 46 46 46 46 46 45 45 46 45 44 45 45 48 48 47 46 47 49 49 47 46 46 47 47 48 50 49 50 50 51 52 52 53 54 54 55 53 50 49 50 52 52 49 50 49 48 48 47 45 42 36 30 31 30 27 28 31
53 56 57 56 54 55 57 59 61 60 60 60 60 58 57 57 54 55 60 60 57 56 54 54 55 52 51 51 51 51 51 50 49 48 47 47 46 46 45 44 44 44 45 47 47 46 47 48 49 47 47 48 48 49 49 49 49 48 49 50 50 52 53 55 55 55 56 53 48 48 49 51 53 50 51 54 53 52 53 53 52 47 40 38 39 35 30 30
51 52 54 54 53 53 52 55 58 59 59 57 57 56 56 57 55 55 56 54 54 54 52 53 54 53 53 53 52 53 54 53 52 50 48 47 46 45 44 44 44 45 45 44 44 44 45 47 47 47 48 48 48 50 50 49 47 46 48 49 50 52 54 57 57 56 57 55 52 52 52 54 58 56 56 57 54 53 55 54 54 54 51 47 47 45 37 31
53 54 55 54 55 55 54 55 55 54 54 52 52 55 56 57 56 54 52 51 53 52 50 50 52 52 53 53 53 54 54 53 52 51 49 48 47 46 45 45 45 46 46 45 45 46 47 47 47 49 48 47 48 48 49 47 45 45 48 48 49 51 54 56 55 56 58 56 55 55 57 62 64 62 60 58 56 57 57 56 55 56 55 53 52 52 47 37
54 55 56 55 55 55 56 58 58 56 56 54 55 57 58 58 58 54 52 49 49 49 48 49 50 51 52 52 52 53 53 53 52 51 51 51 50 49 48 48 48 49 48 48 48 49 51 52 51 51 51 50 50 49 48 49 50 52 53 52 53 53 54 54 54 56 59 59 58 60 64 67 67 65 65 64 62 62 60 58 56 55 56 56 55 55 56 49
53 54 54 54 53 52 51 53 55 55 55 56 59 61 60 60 59 57 55 52 50 49 47 47 48 49 50 50 51 52 52 53 52 53 54 53 53 52 51 52 52 52 52 53 54 54 56 56 54 55 57 55 55 54 54 55 58 59 58 59 60 56 53 54 55 57 60 61 64 67 70 70 68 67 66 65 65 65 64 61 58 56 56 58 58 57 59 60
56 56 56 55 54 55 55 55 55 54 54 55 59 61 61 62 61 61 61 59 58 56 53 52 51 51 53 53 53 53 54 55 56 56 56 56 56 54 54 55 56 57 58 59 59 59 60 59 56 58 59 58 57 57 56 58 61 62 62 62 60 55 54 57 60 60 61 65 68 69 72 72 70 70 70 66 65 65 65 63 61 61 59 59 62 61 60 62
65 65 63 61 61 63 64 64 63 63 62 61 62 60 59 60 60 60 61 62 62 61 60 61 59 58 60 60 58 58 59 61 61 61 61 62 61 59 58 60 61 63 64 62 61 60 61 63 63 63 62 61 60 60 60 61 63 65 65 62 60 60 62 64 66 66 66 70 72 70 72 72 71 74 76 71 66 66 67 67 66 66 65 63 64 65 64 64
71 71 69 67 66 66 66 66 66 66 66 68 69 66 61 60 58 57 58 60 61 61 62 63 62 62 65 65 64 65 66 68 68 68 68 68 68 66 65 67 68 69 70 68 67 67 65 65 68 69 69 68 67 67 67 68 69 69 67 64 64 67 68 68 70 71 70 73 76 75 75 75 74 75 76 72 70 70 70 70 70 68 67 66 65 65 67 68
69 70 70 68 66 65 65 65 65 66 68 70 73 72 68 65 63 62 63 63 63 65 66 66 65 65 66 67 68 69 71 72 73 73 73 74 74 73 72 74 75 75 74 70 68 68 67 65 67 70 71 72 72 73 74 72 71 70 68 66 66 67 69 70 71 72 72 74 76 77 78 78 75 73 72 71 72 73 71 69 70 69 68 68 67 66 68 69
66 67 68 66 64 63 63 64 65 67 70 72 73 73 71 70 70 69 70 70 71 72 73 72 72 72 71 70 71 72 73 74 74 74 75 76 77 77 76 76 75 74 74 70 66 66 67 68 70 71 72 74 74 73 71 68 67 66 65 65 66 67 68 70 71 72 73 75 78 79 81 78 71 67 69 70 72 72 71 69 70 70 70 71 70 69 69 69
64 65 65 64 63 62 63 65 66 67 70 71 70 71 72 73 73 71 70 71 73 74 76 76 76 77 77 76 75 75 76 77 77 77 77 77 77 77 75 74 73 74 74 73 71 71 70 70 70 69 68 68 65 61 60 60 63 65 66 66 66 65 66 69 72 72 73 76 78 79 82 80 70 64 66 69 72 72 70 69 70 71 73 73 72 68 66 64
65 64 64 64 63 63 64 67 67 68 70 70 68 69 70 71 71 71 71 71 72 73 74 75 76 77 79 79 78 77 79 80 81 81 81 82 80 80 78 76 76 77 76 75 75 74 72 69 67 66 66 65 63 61 62 63 64 66 67 66 64 64 65 68 71 71 70 74 75 76 80 80 73 66 65 67 70 71 71 72 73 74 75 73 68 62 58 57
66 64 63 64 64 64 66 68 68 69 71 70 67 68 69 70 70 70 70 72 73 73 74 75 76 76 77 78 77 78 79 80 82 82 81 82 83 82 80 79 79 78 78 77 77 76 74 71 70 70 71 71 69 66 65 66 67 69 69 67 65 64 64 66 67 67 69 73 72 74 79 78 71 65 63 63 66 69 72 73 73 74 73 68 63 59 55 51
68 66 64 64 65 66 68 69 68 69 70 69 69 70 70 71 71 70 70 72 74 74 74 75 75 75 76 76 76 77 78 79 82 82 80 80 81 80 77 76 77 77 78 78 78 78 77 75 75 74 73 74 73 69 67 66 68 69 68 66 64 61 61 62 63 64 69 71 70 73 79 78 72 65 60 60 62 64 66 68 70 72 71 67 63 60 55 49
70 69 67 65 66 67 69 68 68 69 70 69 70 71 71 72 72 70 70 73 74 74 75 76 75 75 76 76 76 78 78 78 81 81 81 80 80 79 76 74 74 75 76 77 78 79 80 80 81 79 77 76 75 73 69 65 65 65 64 63 62 61 62 62 62 66 69 70 69 73 77 75 69 62 57 54 52 51 53 57 62 65 66 66 65 61 55 51
69 70 69 69 69 69 69 68 68 70 70 70 71 72 71 72 72 70 71 73 73 74 76 76 76 76 77 78 78 78 78 77 78 80 81 82 82 81 79 76 76 76 76 76 77 78 79 82 83 84 85 84 83 81 76 71 71 69 66 64 62 62 61 61 66 71 71 72 78 78 76 75 70 60 53 50 48 47 47 48 52 57 60 63 63 59 55 56
68 68 68 69 71 71 70 68 68 69 69 70 73 73 73 73 73 72 73 73 73 74 75 76 76 76 78 78 78 79 79 78 79 80 81 81 81 81 81 80 80 79 79 79 79 79 80 83 85 86 88 88 87 88 86 84 85 83 80 78 75 74 73 75 81 81 78 86 93 85 78 82 78 67 62 59 56 56 57 55 56 60 62 62 61 60 65 72
69 68 67 69 71 71 71 70 69 69 68 69 71 73 72 73 74 74 74 74 74 74 75 77 77 76 77 77 77 79 80 80 80 80 80 80 81 82 82 82 81 81 80 81 83 83 85 86 86 88 90 90 89 89 89 90 92 92 91 91 91 90 90 92 95 94 93 101 104 95 92 98 94 86 85 83 79 79 81 80 78 76 74 73 74 76 81 83
69 68 67 69 69 69 69 70 70 70 69 68 70 70 69 70 71 72 72 73 74 74 75 76 76 76 77 78 78 78 79 78 77 78 79 79 79 80 80 80 80 79 79 80 81 83 85 86 85 87 90 89 87 87 88 89 90 92 92 92 92 92 94 96 98 99 101 105 106 104 104 106 102 98 99 98 97 97 96 94 93 91 90 90 90 88 85 81
68 68 67 68 68 67 67 68 69 70 70 70 70 70 68 68 69 69 70 71 72 73 73 74 75 75 74 73 74 75 76 77 77 78 78 78 78 78 78 79 78 79 79 78 78 79 80 82 82 82 84 85 83 82 82 83 84 86 88 89 89 91 94 96 95 95 96 97 99 97 96 97 99 98 97 95 93 93 94 93 93 92 90 89 89 88 87 85
68 69 68 68 68 67 67 68 68 69 70 69 70 71 69 68 69 69 69 70 70 71 71 72 74 74 71 70 70 72 74 75 75 74 73 74 74 74 72 70 68 69 71 71 72 74 76 79 80 79 80 81 80 80 79 77 77 79 81 82 83 85 88 88 87 86 86 87 88 87 87 90 92 89 84 82 80 80 81 81 81 81 82 86 90 92 93 91
69 69 69 69 69 67 67 68 67 68 69 67 68 70 69 68 69 68 69 69 70 70 70 71 72 73 72 72 73 73 74 75 75 73 72 73 73 71 68 64 61 59 59 57 58 60 64 69 71 72 75 78 78 77 77 75 75 78 78 77 78 79 80 80 81 81 80 79 81 82 82 82 79 75 71 69 69 69 67 66 68 71 75 81 86 88 88 87
Wind_Direction
259 261 264 266 268 270 271 273 274 275 276 277 278 279 281 281 282 282 283 283 283 284 284 285 285 285 286 287 288 289 290 290 290 289 291 292 291 291 292 293 294 295 296 296 296 297 298 298 298 299 299 299 300 300 300 300 300 300 302 301 302 304 305 305 306 306 305 305 306 305 307 308 308 310 310 309 310 311 309 309 318 318 312 313 315 313 310 307
260 262 264 266 268 269 270 272 273 274 275 276 277 277 279 280 281 282 282 283 283 283 284 284 285 285 286 286 287 288 289 289 289 288 290 290 289 289 290 290 291 291 291 292 291 292 293 294 294 295 296 295 296 297 296 295 296 296 298 297 297 298 300 300 301 301 301 301 300 300 300 300 301 304 305 305 306 307 303 302 308 309 307 308 311 311 311 308
262 263 265 266 268 269 270 271 272 273 274 275 276 276 277 278 279 280 280 281 282 282 282 283 283 284 285 286 287 288 289 290 289 289 290 289 289 290 290 290 290 290 290 290 290 291 291 291 291 292 292 292 292 292 292 291 292 294 295 294 292 294 296 296 297 297 297 298 298 298 297 297 297 297 299 298 302 303 296 297 302 301 300 302 304 306 307 306
263 265 266 267 268 269 271 271 273 274 274 275 276 276 277 277 278 278 279 280 280 281 281 282 282 283 284 284 286 287 288 289 289 289 290 290 291 291 291 291 291 291 291 290 291 290 290 290 289 289 289 288 289 289 288 288 289 291 292 290 289 291 292 293 294 294 294 295 295 295 295 296 295 295 294 293 299 297 289 292 297 297 296 297 299 300 301 301
263 265 266 267 268 269 270 271 272 272 273 274 274 275 276 276 277 277 278 278 278 279 279 280 281 282 282 283 284 286 287 287 287 288 289 289 290 290 291 291 291 292 291 291 291 290 290 289 289 288 287 287 287 287 286 286 288 289 289 288 288 288 290 291 291 292 292 292 292 292 293 294 292 292 292 293 297 288 283 288 292 292 291 292 294 295 296 296
262 263 264 265 266 267 268 269 270 270 271 272 273 273 274 275 275 276 276 276 277 277 278 278 279 280 281 282 283 285 286 286 285 287 287 288 289 289 290 290 291 291 292 292 291 291 291 290 290 287 287 287 287 286 286 287 288 288 288 287 286 288 290 290 290 292 292 291 291 290 291 292 290 289 290 295 292 280 281 285 288 289 287 288 290 289 290 291
261 262 263 264 264 265 266 267 268 269 269 270 271 272 272 273 273 274 274 275 275 275 276 276 277 278 279 280 282 284 287 285 284 286 287 288 289 289 289 289 290 291 292 292 293 292 292 292 290 288 289 289 286 287 287 287 288 288 287 285 286 288 289 288 289 291 290 289 288 287 289 289 286 286 290 294 287 279 281 284 286 286 283 284 284 283 284 286
261 261 262 263 264 264 265 266 267 267 268 269 270 271 272 273 273 274 274 274 274 274 275 275 275 276 277 279 281 284 286 283 284 286 286 288 288 288 288 289 290 291 292 292 293 293 293 292 289 289 291 289 288 289 288 287 287 288 287 284 286 288 288 288 289 290 288 287 286 286 287 286 285 286 290 292 284 279 282 285 286 282 279 280 279 279 279 279
262 263 264 264 265 265 266 266 267 268 268 269 270 271 271 272 273 274 274 274 274 274 274 274 275 275 277 279 280 287 285 281 284 287 287 288 287 287 288 289 290 291 291 291 292 293 292 291 290 291 291 289 289 290 288 287 288 289 287 285 286 286 286 288 289 289 286 284 285 286 286 285 285 288 292 289 280 278 282 284 283 280 279 277 275 276 277 277
263 264 264 265 266 266 267 267 268 269 269 270 270 271 271 272 273 273 274 274 274 275 275 275 275 275 276 277 280 286 281 280 284 287 287 287 286 286 288 289 290 291 291 292 292 291 291 290 291 291 290 290 291 290 288 288 289 288 287 287 287 285 285 287 289 288 283 283 284 286 286 285 286 290 294 287 277 278 280 279 280 280 279 276 275 276 277 278
263 264 265 265 266 266 267 268 268 269 269 270 270 271 271 272 273 274 274 274 275 275 276 276 276 276 276 276 281 281 276 280 285 285 285 285 285 286 288 290 292 292 292 292 291 290 291 291 291 291 291 291 292 292 289 290 290 289 289 288 287 285 285 288 288 283 280 282 285 287 287 287 289 293 296 286 277 277 277 276 276 278 278 278 278 278 277 277
264 264 265 266 266 267 267 268 269 269 270 271 271 271 272 272 272 273 274 275 275 275 275 276 276 276 276 277 280 277 276 280 283 283 283 283 285 288 289 291 291 291 291 291 290 290 291 291 291 291 291 292 293 292 289 290 290 291 292 290 288 286 287 291 284 278 280 284 288 288 287 288 293 298 297 285 278 278 277 277 276 275 277 279 280 279 278 278
263 264 265 266 267 267 268 269 269 270 270 271 271 271 272 272 272 272 273 274 274 274 274 274 274 274 274 276 277 276 276 278 278 279 279 280 283 286 288 289 289 289 289 289 289 289 289 289 289 289 290 291 293 291 290 291 291 293 292 290 291 286 285 283 274 275 282 288 291 288 287 291 295 299 295 284 281 281 279 279 279 278 278 278 279 279 279 278
262 263 264 265 265 266 267 268 268 269 269 270 270 270 271 271 272 272 272 273 273 273 273 273 273 273 274 275 275 274 275 275 274 275 276 279 282 283 286 287 287 287 287 286 286 286 286 286 286 287 288 289 291 290 291 291 291 293 291 291 293 286 279 271 270 279 287 289 289 286 288 291 294 296 291 284 283 283 281 281 281 281 280 279 278 277 278 278
261 261 262 263 264 264 265 266 267 268 268 269 269 269 270 270 271 272 272 273 273 273 273 273 273 274 274 274 274 273 273 273 273 274 276 279 281 283 285 285 286 287 286 286 285 284 283 283 283 285 286 288 290 290 289 288 290 293 292 290 289 283 280 275 275 286 290 288 286 285 286 289 291 292 284 282 286 285 283 282 282 280 280 279 278 278 277 276
260 261 261 262 262 263 264 265 266 267 267 268 268 268 269 270 271 273 273 274 273 273 273 272 273 273 274 274 272 271 270 271 272 274 277 278 280 282 283 283 285 285 285 285 284 284 283 283 283 284 286 288 290 289 287 286 289 292 290 287 284 282 284 284 284 289 290 288 286 284 285 286 290 289 280 278 282 284 283 282 279 278 277 277 278 278 275 274
260 260 261 261 262 263 264 265 265 266 266 266 267 268 269 269 271 273 275 276 275 273 272 272 272 272 272 273 271 269 269 270 271 273 275 276 279 280 281 282 283 283 283 283 283 284 284 284 284 284 285 289 291 289 286 286 288 288 284 283 282 283 286 288 290 291 288 286 284 284 283 285 288 287 280 275 276 281 283 281 277 274 274 275 275 275 274 273
260 260 260 261 262 263 264 265 265 266 266 266 266 267 268 270 271 273 276 277 276 275 273 272 272 272 272 272 270 268 268 269 270 272 273 275 276 277 279 281 281 281 280 281 281 282 282 282 281 282 285 292 294 289 285 285 286 282 280 280 282 284 286 287 292 294 289 284 282 282 283 285 286 283 279 275 275 279 283 285 282 276 274 273 273 273 275 275
259 259 260 261 262 263 264 265 266 266 266 266 267 267 268 270 272 274 276 276 276 275 275 274 272 272 273 272 270 269 267 267 269 270 272 273 275 277 279 279 279 278 278 279 280 279 279 278 277 280 288 295 293 285 283 284 283 281 280 280 281 283 284 286 291 293 289 285 282 282 284 284 284 282 281 278 277 279 284 287 285 282 277 274 274 275 276 277
259 259 260 261 262 264 265 266 266 266 266 266 267 268 269 271 272 274 276 275 275 274 275 275 274 272 273 273 272 270 269 267 268 269 271 273 274 275 276 276 276 276 277 278 277 276 276 274 275 282 291 292 286 281 282 284 284 284 284 283 283 284 285 287 290 289 288 285 283 284 284 283 284 285 285 282 279 280 285 285 282 281 279 277 277 277 275 274
259 260 261 262 263 265 266 266 267 267 267 267 269 270 271 272 273 274 274 274 273 274 274 275 275 275 275 274 272 271 270 268 268 270 272 271 271 272 273 274 274 275 276 276 274 275 275 274 277 286 290 284 279 280 282 284 285 285 286 286 286 286 287 289 289 288 286 283 283 284 284 284 285 285 284 283 281 282 284 281 279 279 279 279 277 274 272 272
260 261 262 263 264 265 266 267 267 268 268 269 269 271 272 273 273 274 273 272 271 273 274 275 276 276 275 274 273 272 271 270 271 270 269 268 269 272 273 272 272 273 273 272 273 276 274 274 281 287 281 276 277 279 281 282 283 284 285 287 286 288 290 290 288 287 283 282 284 285 285 285 285 285 285 285 286 286 283 279 277 277 278 278 274 270 268 271
260 261 262 263 264 265 266 267 267 268 268 269 269 270 271 271 272 272 272 271 271 270 272 274 275 274 274 274 274 273 274 276 275 271 269 268 269 269 269 269 270 270 269 270 274 274 272 274 280 280 274 274 276 278 279 280 280 281 283 284 285 289 292 288 287 286 283 282 284 286 286 286 286 287 287 289 291 289 285 282 278 274 275 276 273 268 267 268
260 261 262 263 264 265 266 267 267 268 268 269 269 269 269 270 270 270 270 271 271 270 271 272 272 272 273 274 275 276 278 278 275 273 270 269 268 266 266 267 267 267 268 271 272 270 270 273 277 275 274 275 276 277 278 277 277 278 280 282 285 289 288 286 287 287 284 283 285 287 287 286 287 288 290 293 294 292 289 285 280 276 277 277 272 269 269 269
261 261 262 263 264 265 266 267 267 268 268 268 267 268 268 268 268 269 270 272 273 273 271 270 269 270 272 274 276 277 277 275 274 274 271 268 267 266 265 265 265 267 270 271 269 268 268 271 274 275 275 276 276 276 274 275 277 278 278 280 284 285 284 285 286 287 287 286 287 287 287 287 289 290 293 297 294 291 289 285 284 282 281 279 275 271 271 270
262 262 263 264 265 266 266 266 266 266 265 265 265 266 267 267 268 269 270 272 274 274 272 270 268 268 270 273 274 275 275 275 274 272 270 268 266 265 265 265 266 268 269 269 267 266 268 271 273 272 274 274 272 272 274 277 278 277 278 281 281 280 282 283 284 286 287 288 288 287 286 289 292 294 298 299 293 288 287 288 291 288 282 279 278 274 273 272
261 262 264 266 267 267 267 266 265 263 262 263 264 265 266 267 267 269 271 273 274 274 273 272 272 272 271 270 271 272 273 274 272 270 269 268 266 266 266 267 268 268 268 267 265 266 270 272 270 270 271 270 271 274 278 278 276 277 280 281 279 279 280 281 283 284 285 286 286 285 286 291 295 300 302 297 290 288 291 294 294 290 283 278 277 277 276 275
259 261 263 265 266 267 267 266 264 263 262 263 264 265 265 266 267 269 271 272 272 272 273 274 276 276 275 272 270 270 270 271 270 269 268 268 267 267 266 267 267 266 265 265 265 268 271 271 270 270 270 270 274 278 278 275 275 278 279 278 278 279 280 281 281 282 282 283 283 284 287 292 295 299 299 293 290 293 298 300 296 290 284 278 278 281 280 277
258 260 262 264 265 265 265 265 264 263 263 263 264 265 266 266 267 268 268 269 270 271 274 276 276 276 275 274 273 271 269 268 268 269 268 267 267 266 266 266 265 264 264 264 266 268 270 271 271 270 270 273 276 277 276 275 276 277 277 278 279 279 279 279 278 278 278 279 283 287 290 292 294 295 293 290 294 298 301 301 299 293 288 284 281 280 278 276
260 261 262 263 264 264 263 263 263 264 264 265 265 266 266 266 266 267 265 265 269 272 274 275 274 273 274 274 274 273 270 268 267 268 268 267 266 265 264 263 262 263 263 264 266 268 270 271 270 272 274 276 276 275 276 277 276 276 277 278 278 278 278 276 275 275 274 278 286 289 289 291 290 290 290 294 299 301 303 304 301 297 292 287 283 276 271 272
265 263 261 262 264 266 265 263 262 263 265 266 267 267 267 266 265 265 265 266 270 271 272 273 273 273 273 272 272 273 272 271 270 269 268 267 266 263 262 261 262 263 262 263 266 267 268 269 270 273 275 276 276 278 279 279 278 279 279 279 278 277 276 274 274 273 273 278 283 283 283 284 282 282 288 294 299 302 304 303 301 300 297 292 288 281 273 269
268 266 264 263 264 265 266 264 263 263 264 264 266 268 269 270 267 265 266 269 270 269 269 270 271 272 271 271 270 270 270 270 271 270 269 267 263 260 260 260 263 264 264 265 265 265 266 267 270 271 273 276 278 279 279 279 279 279 279 278 277 276 275 274 274 273 274 277 279 279 279 277 279 283 286 290 295 297 297 297 298 298 297 295 291 287 281 275
266 267 267 266 266 266 266 264 263 263 264 262 261 264 266 267 267 267 268 267 266 268 268 267 268 269 269 270 269 270 270 269 269 268 267 265 262 260 259 260 263 264 265 265 265 268 270 271 272 272 273 275 276 276 277 277 277 277 277 277 275 275 274 273 274 276 277 277 276 275 273 276 284 289 289 290 290 290 290 291 292 293 293 293 290 289 286 280
263 264 266 267 267 268 267 266 265 265 266 264 261 262 262 261 263 264 265 263 263 264 265 265 267 268 268 270 270 271 271 271 269 268 268 266 264 262 261 263 264 263 263 264 265 268 271 272 273 272 271 271 272 273 275 275 274 274 276 276 274 274 274 275 277 278 277 275 272 270 269 276 285 289 290 292 290 289 289 289 289 290 291 290 289 290 290 288
260 261 263 264 265 268 268 267 267 267 267 266 262 259 259 260 261 259 258 260 262 263 263 263 265 267 269 270 270 271 271 271 271 271 270 269 268 267 266 267 268 267 268 269 270 270 269 270 272 272 271 271 272 272 274 275 274 274 275 274 273 275 277 277 276 275 274 272 271 269 270 276 282 284 286 289 289 290 290 289 290 289 289 288 288 289 291 292
263 263 264 264 266 269 270 269 268 267 267 267 262 257 256 258 258 256 256 258 260 263 264 264 264 266 266 267 268 269 271 272 272 271 271 270 269 268 268 269 270 271 273 275 275 275 273 272 271 271 272 274 274 274 273 274 274 273 272 272 275 277 276 275 274 273 273 272 270 268 271 275 278 281 283 284 285 287 287 288 289 288 287 287 289 290 289 290
267 267 267 267 269 270 270 270 270 269 267 266 264 261 259 257 256 256 257 257 258 260 262 262 263 263 264 264 265 267 268 269 270 270 270 269 268 268 269 270 271 273 275 276 277 278 277 276 274 274 275 275 275 274 271 271 271 271 270 272 275 275 274 274 276 276 274 273 271 268 268 271 273 278 284 283 282 284 284 284 285 286 288 288 289 291 291 289
268 268 268 269 270 271 271 270 269 268 266 264 265 266 265 262 260 261 261 260 260 261 260 260 261 262 263 264 265 265 266 268 269 269 269 268 268 268 269 270 271 273 275 277 278 279 280 280 279 279 278 278 278 276 273 272 271 271 272 272 272 271 271 272 273 274 274 275 274 271 268 267 269 274 280 281 280 281 281 281 282 284 286 287 288 289 289 288
268 268 268 269 269 270 269 269 268 267 265 265 267 269 268 267 266 266 267 266 265 265 264 264 263 263 262 262 264 264 264 267 269 270 270 270 269 269 270 271 272 274 276 277 278 280 280 281 281 280 279 280 280 279 278 277 276 275 275 273 270 269 269 269 269 271 272 273 274 273 269 267 268 273 276 277 278 279 279 279 280 281 282 283 283 282 283 284
268 268 268 268 268 268 267 267 266 265 265 267 270 271 271 270 269 268 269 268 267 267 267 266 266 266 264 263 263 263 263 264 266 270 271 271 270 270 271 273 275 277 278 278 278 279 279 280 280 281 280 280 280 280 280 279 278 277 275 273 272 271 269 269 268 269 271 273 274 275 273 270 269 271 274 276 278 279 280 280 278 278 279 278 278 278 279 280
268 268 269 269 268 267 266 265 264 265 265 266 267 269 269 270 270 270 269 268 268 267 267 267 267 268 268 266 265 265 265 265 265 267 269 269 270 270 270 271 273 275 276 277 276 277 279 280 281 281 280 278 278 278 277 276 275 276 276 276 275 273 271 269 269 272 275 276 276 276 276 274 271 268 272 277 278 279 279 278 276 276 275 274 274 275 276 276
269 269 269 269 268 267 266 265 265 265 265 265 266 266 267 268 268 268 269 269 269 269 269 269 268 268 269 269 268 268 268 267 267 267 268 268 269 270 270 270 272 273 274 274 274 275 277 279 279 279 278 277 277 276 276 276 275 275 275 276 276 275 273 272 274 276 276 273 273 274 273 274 274 275 277 277 275 275 275 274 275 275 272 271 272 272 271 272
272 271 269 268 267 267 265 265 265 266 266 267 267 266 266 266 266 266 267 268 269 269 270 270 270 271 271 271 271 271 270 270 269 269 269 269 269 270 272 273 273 273 273 272 272 273 274 275 275 275 276 276 277 276 275 274 274 274 275 277 276 275 274 273 274 273 270 268 269 270 269 270 276 283 282 276 273 273 273 274 274 272 268 267 269 268 268 270
273 272 271 269 267 266 266 266 267 267 267 267 266 265 265 265 264 264 265 266 268 269 270 270 271 271 271 272 272 272 272 272 271 270 270 271 271 271 272 273 273 273 273 273 273 273 272 271 272 273 273 274 274 273 272 272 273 273 273 273 271 269 269 269 269 268 267 266 267 267 267 270 277 280 275 271 270 269 269 270 268 265 263 263 265 265 266 270
272 272 271 270 268 266 266 268 268 268 267 267 266 265 265 264 264 264 265 266 267 268 269 270 270 270 271 271 271 271 271 271 272 272 272 272 272 272 271 271 270 270 271 272 272 271 270 269 270 270 270 270 270 270 272 274 272 269 266 264 263 263 265 266 267 266 264 264 264 264 267 272 275 273 267 264 262 260 260 260 258 258 258 259 262 264 265 269
270 270 270 270 269 267 267 268 268 267 268 268 268 267 266 266 266 265 265 265 266 267 268 269 269 269 270 270 270 271 271 271 271 272 272 273 273 273 272 271 270 269 270 270 270 270 269 268 268 268 268 268 268 269 270 271 270 266 264 263 261 261 263 264 266 266 265 268 268 266 270 275 274 271 267 262 258 258 259 255 252 258 262 260 260 263 267 272
268 269 269 269 268 269 269 269 268 267 267 267 268 268 268 268 268 266 266 266 266 267 268 268 269 270 270 271 272 272 271 271 271 271 272 272 272 271 271 270 270 270 270 269 269 269 269 269 269 269 269 269 270 270 270 270 269 268 268 267 266 266 267 267 268 268 270 273 273 271 273 276 275 272 270 266 262 263 266 262 258 262 265 262 259 263 270 277
269 269 268 268 268 269 270 270 269 268 267 266 267 267 268 268 268 268 268 267 267 267 267 268 269 269 270 270 271 271 271 271 271 272 272 272 272 272 271 271 271 271 271 270 270 270 270 270 271 271 271 271 271 272 272 271 271 271 271 271 271 271 271 272 273 273 274 276 277 277 278 279 278 278 277 276 273 273 275 275 271 268 268 268 268 271 275 278
269 268 268 268 268 269 269 269 269 269 268 268 267 268 268 268 268 268 269 269 269 268 268 269 269 269 269 269 270 271 271 271 271 272 272 273 273 274 274 273 272 271 271 270 270 271 271 271 272 273 274 274 273 273 273 273 272 272 273 273 273 274 273 273 274 274 275 276 278 279 280 280 280 281 281 280 279 279 280 280 278 277 276 276 276 276 276 277
268 268 267 268 268 268 268 268 269 269 269 269 270 270 270 269 269 269 269 270 270 269 269 269 269 269 269 269 269 271 271 271 272 273 273 273 273 274 275 275 275 273 272 272 271 271 270 271 272 273 273 273 273 273 273 273 273 273 272 273 274 274 274 274 274 275 275 276 276 277 278 278 278 279 280 280 278 278 279 280 280 280 279 277 276 276 275 276
268 268 268 268 268 268 268 268 268 269 269 270 271 271 270 270 270 270 270 270 270 269 269 269 269 269 268 268 268 268 269 270 271 271 272 273 273 273 274 276 276 275 274 274 272 271 271 271 272 272 272 273 273 273 273 273 272 271 269 270 271 272 273 274 275 275 275 276 276 277 278 279 279 278 278 278 277 277 277 278 278 277 276 275 275 276 276 277
268 268 268 268 268 268 268 268 268 269 269 270 270 270 270 271 271 271 270 269 269 269 269 269 269 269 268 268 267 267 267 268 268 269 268 268 269 269 269 268 268 268 268 268 268 269 270 271 272 272 273 274 274 275 276 276 274 272 271 271 271 271 272 273 273 274 275 277 278 278 279 279 279 278 276 275 275 275 275 274 271 271 272 274 275 276 277 278
Height
5889 5890 5890 5890 5890 5891 5891 5891 5891 5891 5892 5892 5892 5892 5892 5892 5892 5892 5892 5892 5892 5892 5892 5892 5892 5892 5892 5892 5892 5892 5891 5891 5891 5890 5891 5891 5890 5890 5890 5889 5889 5888 5888 5887 5887 5886 5886 5885 5884 5884 5883 5883 5882 5882 5881 5881 5880 5880 5879 5878 5877 5877 5876 5876 5875 5875 5874 5873 5873 5872 5871 5871 5870 5869 5869 5868 5867 5866 5865 5865 5865 5863 5862 5861 5860 5859 5858 5857
5887 5888 5888 5888 5888 5889 5889 5889 5889 5889 5890 5890 5890 5890 5890 5890 5890 5890 5890 5890 5890 5890 5890 5890 5890 5890 5890 5890 5890 5890 5890 5889 5889 5888 5889 5889 5888 5888 5888 5887 5887 5887 5886 5886 5885 5885 5884 5884 5883 5882 5881 5881 5880 5880 5879 5879 5878 5878 5877 5876 5875 5875 5875 5873 5873 5872 5872 5871 5871 5871 5870 5869 5868 5867 5867 5866 5865 5864 5863 5863 5863 5862 5860 5860 5859 5858 5857 5856
5885 5885 5886 5886 5886 5886 5887 5887 5887 5887 5887 5888 5888 5888 5888 5888 5888 5888 5888 5888 5888 5888 5888 5888 5888 5888 5888 5888 5888 5888 5887 5887 5886 5886 5887 5886 5885 5885 5885 5885 5885 5885 5884 5883 5883 5883 5882 5882 5881 5880 5879 5879 5878 5878 5877 5876 5876 5876 5875 5874 5873 5873 5873 5871 5871 5870 5869 5869 5868 5868 5868 5867 5866 5865 5865 5864 5863 5862 5861 5861 5861 5861 5859 5858 5857 5856 5855 5854
5882 5883 5883 5883 5883 5884 5884 5884 5884 5885 5885 5885 5885 5885 5886 5886 5886 5886 5886 5886 5886 5886 5886 5886 5886 5885 5885 5885 5885 5885 5885 5884 5883 5883 5884 5884 5883 5883 5882 5882 5882 5882 5881 5881 5880 5880 5880 5880 5879 5878 5877 5876 5876 5875 5873 5873 5873 5873 5873 5872 5870 5870 5870 5868 5868 5867 5866 5865 5865 5864 5864 5864 5863 5863 5862 5861 5862 5860 5857 5858 5859 5859 5857 5856 5856 5855 5854 5853
5879 5880 5880 5880 5880 5881 5881 5881 5882 5881 5882 5882 5882 5882 5882 5883 5883 5883 5883 5883 5883 5883 5883 5883 5883 5883 5883 5883 5883 5883 5882 5881 5881 5881 5881 5881 5880 5880 5879 5879 5879 5879 5878 5878 5877 5877 5876 5876 5876 5875 5874 5873 5872 5872 5870 5869 5870 5871 5870 5868 5867 5867 5867 5866 5864 5864 5863 5862 5861 5860 5861 5861 5860 5860 5859 5859 5860 5857 5854 5855 5856 5856 5855 5854 5853 5852 5852 5851
5876 5876 5877 5877 5877 5877 5878 5878 5878 5878 5879 5879 5879 5879 5879 5880 5880 5880 5880 5880 5880 5880 5880 5880 5880 5880 5879 5880 5880 5880 5880 5878 5878 5878 5878 5878 5877 5877 5876 5876 5876 5875 5875 5874 5874 5873 5872 5872 5872 5871 5871 5870 5869 5868 5867 5866 5866 5868 5867 5865 5863 5863 5864 5863 5861 5860 5859 5858 5857 5857 5857 5857 5855 5856 5856 5857 5856 5853 5851 5851 5852 5853 5852 5851 5851 5850 5849 5848
5873 5873 5873 5874 5874 5874 5874 5875 5875 5875 5875 5875 5876 5876 5876 5876 5876 5877 5876 5877 5877 5876 5877 5876 5876 5876 5876 5877 5877 5877 5877 5875 5874 5875 5875 5874 5874 5873 5873 5873 5872 5872 5871 5871 5870 5869 5868 5868 5867 5866 5867 5867 5865 5865 5864 5863 5862 5863 5864 5862 5860 5860 5860 5860 5858 5858 5855 5854 5853 5853 5854 5853 5851 5852 5854 5854 5851 5849 5847 5847 5849 5849 5849 5849 5848 5847 5846 5846
5870 5870 5870 5871 5871 5871 5871 5872 5872 5872 5872 5872 5872 5872 5872 5873 5873 5873 5873 5873 5873 5873 5873 5873 5873 5873 5873 5874 5874 5875 5875 5871 5871 5872 5872 5871 5871 5870 5870 5870 5869 5869 5868 5868 5867 5865 5865 5864 5863 5861 5862 5862 5861 5861 5859 5859 5859 5859 5860 5858 5857 5857 5856 5856 5856 5855 5852 5851 5849 5848 5850 5849 5846 5848 5852 5852 5845 5844 5844 5844 5845 5845 5846 5846 5845 5845 5844 5843
5866 5867 5867 5868 5868 5868 5868 5869 5869 5869 5869 5869 5869 5869 5869 5869 5870 5870 5870 5870 5870 5870 5870 5869 5870 5869 5870 5871 5871 5873 5871 5867 5868 5869 5869 5868 5868 5867 5867 5867 5867 5867 5866 5865 5864 5862 5861 5860 5859 5858 5858 5858 5858 5858 5855 5854 5855 5855 5854 5854 5854 5853 5852 5852 5853 5851 5847 5846 5845 5844 5846 5845 5843 5843 5849 5849 5841 5839 5841 5841 5841 5840 5842 5842 5841 5841 5841 5841
5863 5864 5864 5864 5865 5865 5865 5866 5866 5866 5866 5866 5866 5866 5866 5867 5867 5866 5866 5866 5866 5866 5866 5866 5866 5866 5867 5867 5869 5871 5867 5864 5866 5866 5865 5865 5865 5865 5864 5864 5864 5864 5863 5862 5861 5859 5858 5856 5855 5854 5854 5854 5855 5854 5852 5850 5851 5851 5850 5850 5851 5849 5849 5850 5849 5847 5843 5842 5841 5839 5841 5842 5840 5840 5844 5845 5837 5835 5838 5837 5836 5836 5837 5837 5837 5838 5837 5837
5860 5860 5860 5861 5861 5861 5862 5862 5863 5863 5863 5863 5863 5863 5863 5863 5863 5863 5863 5862 5863 5863 5862 5862 5862 5862 5863 5864 5867 5868 5863 5862 5863 5862 5862 5861 5861 5861 5862 5861 5861 5860 5859 5859 5858 5856 5855 5853 5852 5851 5850 5850 5851 5851 5848 5847 5846 5846 5845 5845 5847 5845 5845 5848 5845 5842 5838 5838 5838 5834 5835 5838 5838 5838 5840 5840 5833 5831 5833 5833 5833 5832 5832 5832 5832 5833 5833 5833
5856 5856 5856 5857 5857 5858 5858 5859 5859 5860 5860 5860 5859 5859 5859 5860 5860 5860 5859 5859 5859 5859 5858 5858 5858 5858 5858 5861 5864 5862 5860 5860 5860 5858 5858 5857 5857 5858 5858 5858 5858 5857 5856 5855 5854 5853 5851 5849 5848 5847 5846 5846 5847 5846 5844 5844 5842 5841 5840 5839 5842 5841 5841 5845 5840 5836 5834 5833 5834 5829 5828 5833 5836 5836 5836 5834 5829 5827 5828 5829 5829 5828 5828 5828 5827 5828 5828 5828
5852 5852 5853 5853 5854 5854 5855 5855 5856 5856 5856 5856 5856 5856 5856 5856 5856 5856 5856 5855 5855 5855 5855 5853 5853 5853 5853 5858 5861 5858 5857 5858 5856 5854 5853 5853 5854 5855 5855 5854 5854 5853 5853 5852 5850 5849 5848 5846 5844 5843 5843 5842 5843 5842 5841 5840 5838 5838 5836 5833 5837 5836 5837 5841 5835 5832 5832 5830 5830 5825 5821 5828 5835 5834 5832 5829 5824 5823 5824 5824 5824 5823 5824 5824 5824 5823 5823 5823
5848 5848 5848 5849 5849 5850 5850 5851 5852 5852 5852 5852 5852 5852 5852 5852 5852 5852 5852 5851 5851 5851 5850 5849 5849 5848 5849 5855 5857 5854 5853 5853 5852 5851 5849 5850 5851 5852 5851 5851 5850 5850 5849 5848 5847 5845 5844 5842 5839 5838 5839 5839 5839 5838 5836 5836 5835 5835 5831 5830 5832 5829 5832 5837 5832 5830 5830 5827 5826 5821 5816 5822 5831 5832 5829 5825 5821 5820 5820 5821 5821 5819 5819 5819 5820 5819 5819 5819
5843 5844 5844 5844 5845 5845 5846 5846 5847 5848 5848 5848 5848 5847 5847 5847 5847 5848 5847 5847 5847 5846 5846 5845 5845 5844 5844 5850 5853 5851 5850 5849 5848 5847 5846 5847 5848 5848 5848 5847 5846 5846 5845 5844 5843 5841 5839 5837 5835 5834 5835 5836 5836 5834 5832 5831 5832 5832 5827 5826 5826 5822 5823 5830 5831 5830 5827 5824 5822 5817 5812 5815 5825 5829 5826 5822 5819 5817 5816 5817 5817 5816 5815 5814 5815 5815 5815 5814
5839 5839 5839 5840 5840 5841 5841 5842 5842 5843 5843 5844 5843 5843 5843 5842 5843 5843 5843 5843 5842 5842 5841 5840 5841 5839 5839 5845 5849 5847 5846 5845 5843 5843 5844 5844 5844 5845 5844 5843 5843 5842 5841 5840 5839 5837 5835 5833 5830 5830 5831 5833 5833 5831 5827 5825 5828 5829 5823 5819 5820 5818 5817 5822 5829 5830 5825 5819 5816 5813 5809 5810 5818 5824 5823 5819 5817 5814 5812 5814 5814 5812 5811 5810 5810 5810 5810 5809
5834 5835 5835 5835 5836 5837 5837 5837 5838 5838 5839 5839 5839 5838 5838 5837 5838 5838 5838 5838 5837 5837 5836 5835 5837 5834 5834 5840 5843 5842 5842 5840 5840 5839 5840 5840 5840 5841 5840 5839 5839 5837 5836 5835 5834 5833 5830 5828 5825 5826 5828 5830 5831 5827 5822 5820 5823 5824 5818 5814 5813 5814 5813 5814 5822 5826 5822 5815 5810 5808 5804 5804 5812 5817 5817 5816 5814 5811 5810 5811 5811 5809 5808 5808 5807 5806 5805 5805
5830 5830 5830 5831 5832 5832 5832 5833 5833 5834 5834 5834 5834 5834 5833 5832 5833 5832 5833 5833 5832 5832 5830 5830 5831 5828 5830 5835 5836 5837 5838 5836 5836 5835 5836 5837 5836 5836 5835 5835 5834 5833 5832 5831 5830 5828 5826 5823 5820 5821 5824 5828 5828 5822 5817 5816 5818 5816 5813 5810 5807 5809 5809 5809 5815 5819 5817 5810 5805 5802 5798 5799 5805 5809 5811 5812 5811 5808 5807 5807 5807 5806 5805 5804 5803 5801 5801 5800
5825 5825 5826 5826 5827 5827 5827 5828 5828 5829 5829 5829 5829 5829 5829 5828 5827 5827 5827 5827 5827 5827 5825 5825 5826 5823 5824 5829 5830 5831 5832 5832 5831 5831 5832 5832 5832 5831 5831 5830 5829 5828 5827 5826 5825 5823 5820 5817 5815 5818 5823 5825 5822 5817 5813 5813 5813 5809 5807 5805 5804 5804 5803 5806 5810 5812 5809 5802 5797 5797 5794 5793 5797 5801 5805 5807 5806 5804 5804 5804 5803 5802 5801 5800 5798 5797 5796 5795
5820 5820 5821 5821 5822 5822 5823 5823 5823 5824 5824 5824 5824 5824 5824 5823 5822 5822 5821 5821 5822 5822 5820 5819 5820 5819 5819 5822 5823 5824 5826 5826 5827 5828 5828 5828 5827 5826 5825 5825 5823 5822 5822 5822 5819 5817 5815 5811 5810 5817 5821 5820 5816 5812 5810 5810 5808 5805 5803 5801 5801 5799 5798 5802 5805 5806 5804 5793 5788 5791 5788 5786 5789 5793 5798 5801 5801 5801 5801 5800 5799 5798 5797 5796 5795 5793 5792 5790
5815 5815 5816 5816 5817 5817 5817 5818 5818 5818 5819 5819 5819 5818 5818 5818 5817 5817 5816 5816 5816 5816 5815 5814 5813 5814 5816 5816 5816 5817 5818 5820 5822 5824 5824 5823 5822 5821 5821 5820 5817 5817 5818 5816 5812 5812 5810 5804 5808 5816 5817 5813 5809 5808 5807 5805 5803 5801 5799 5797 5797 5796 5794 5797 5799 5799 5799 5787 5780 5783 5781 5779 5783 5786 5790 5793 5794 5797 5797 5796 5795 5794 5792 5792 5791 5789 5788 5786
5809 5810 5811 5811 5811 5812 5812 5812 5813 5813 5813 5813 5814 5813 5813 5812 5811 5811 5809 5809 5811 5811 5810 5810 5809 5808 5810 5809 5809 5811 5811 5814 5818 5819 5818 5817 5817 5817 5816 5813 5811 5812 5811 5809 5808 5808 5802 5799 5808 5813 5809 5805 5804 5804 5803 5801 5799 5797 5796 5794 5791 5792 5791 5791 5792 5793 5791 5781 5775 5777 5773 5772 5777 5779 5783 5787 5789 5792 5792 5791 5791 5790 5788 5788 5787 5786 5784 5783
5803 5804 5805 5805 5806 5806 5806 5807 5807 5807 5807 5807 5808 5808 5807 5807 5806 5805 5803 5802 5805 5807 5806 5806 5804 5802 5803 5804 5804 5805 5806 5809 5812 5812 5812 5811 5812 5812 5808 5807 5806 5804 5803 5804 5806 5802 5795 5796 5805 5806 5801 5800 5799 5800 5799 5796 5795 5793 5793 5790 5787 5790 5788 5783 5784 5786 5784 5778 5773 5771 5765 5764 5771 5773 5776 5782 5784 5785 5786 5786 5787 5786 5784 5784 5783 5782 5781 5780
5797 5798 5798 5799 5800 5800 5801 5801 5801 5801 5801 5801 5802 5802 5802 5801 5800 5799 5798 5795 5796 5800 5803 5802 5799 5797 5798 5799 5799 5800 5802 5804 5804 5805 5806 5805 5805 5804 5802 5802 5799 5796 5798 5802 5801 5794 5789 5794 5799 5798 5796 5796 5794 5794 5794 5791 5790 5789 5788 5787 5785 5786 5784 5779 5778 5777 5776 5774 5771 5769 5758 5754 5764 5768 5771 5778 5779 5779 5781 5781 5782 5782 5781 5780 5779 5778 5778 5776
5791 5792 5793 5793 5793 5794 5795 5795 5795 5795 5795 5795 5795 5795 5795 5795 5795 5794 5793 5789 5787 5792 5797 5795 5793 5793 5794 5795 5796 5797 5797 5798 5798 5799 5799 5798 5798 5797 5796 5795 5792 5792 5795 5797 5794 5786 5785 5792 5794 5792 5791 5790 5789 5788 5788 5788 5786 5784 5783 5784 5784 5782 5779 5776 5775 5771 5768 5768 5768 5767 5755 5746 5755 5763 5766 5773 5774 5773 5775 5775 5777 5779 5777 5775 5774 5774 5774 5772
5785 5786 5787 5787 5787 5788 5789 5789 5789 5789 5789 5789 5789 5789 5789 5789 5789 5788 5787 5784 5780 5783 5787 5786 5787 5789 5791 5792 5792 5792 5791 5792 5793 5793 5792 5792 5792 5791 5790 5788 5788 5790 5790 5789 5786 5779 5781 5789 5789 5786 5785 5784 5782 5781 5784 5785 5781 5777 5777 5781 5781 5777 5775 5773 5772 5769 5765 5762 5761 5760 5754 5744 5745 5756 5762 5765 5765 5765 5768 5771 5773 5775 5774 5770 5769 5769 5769 5768
5778 5779 5780 5781 5781 5782 5783 5783 5783 5783 5783 5783 5783 5784 5783 5783 5783 5783 5782 5778 5774 5775 5777 5777 5780 5783 5787 5788 5787 5787 5786 5786 5787 5787 5787 5786 5786 5785 5783 5783 5784 5784 5784 5782 5778 5775 5779 5783 5782 5781 5780 5777 5775 5778 5782 5780 5774 5772 5774 5775 5773 5772 5772 5770 5769 5767 5763 5761 5756 5752 5753 5747 5738 5745 5755 5755 5754 5757 5761 5767 5769 5769 5769 5767 5765 5765 5765 5763
5771 5772 5774 5775 5775 5776 5776 5776 5776 5776 5776 5776 5777 5777 5776 5777 5777 5778 5778 5772 5766 5766 5768 5772 5775 5776 5779 5781 5781 5782 5781 5781 5780 5780 5781 5780 5779 5779 5778 5778 5778 5777 5777 5774 5772 5773 5775 5775 5775 5775 5773 5771 5773 5775 5775 5772 5769 5769 5769 5767 5766 5766 5766 5766 5764 5763 5760 5758 5752 5747 5754 5752 5737 5737 5745 5744 5744 5750 5755 5760 5763 5764 5764 5763 5762 5762 5761 5759
5763 5765 5767 5768 5769 5770 5769 5770 5769 5768 5770 5770 5770 5770 5770 5771 5771 5772 5772 5763 5757 5760 5764 5768 5770 5769 5770 5772 5774 5775 5775 5775 5774 5773 5774 5774 5773 5773 5772 5773 5771 5770 5770 5768 5767 5769 5770 5769 5769 5767 5766 5768 5770 5770 5768 5766 5765 5765 5764 5762 5761 5760 5759 5759 5757 5757 5756 5753 5748 5747 5753 5753 5739 5732 5734 5735 5738 5744 5748 5752 5755 5758 5759 5758 5759 5758 5755 5753
5757 5759 5759 5761 5763 5763 5763 5764 5762 5761 5763 5763 5763 5763 5763 5763 5765 5765 5760 5754 5754 5757 5760 5762 5762 5762 5764 5764 5765 5766 5767 5767 5766 5766 5766 5766 5766 5766 5766 5766 5765 5764 5764 5762 5762 5764 5765 5763 5762 5761 5762 5763 5763 5762 5762 5761 5759 5759 5759 5757 5756 5754 5752 5751 5749 5750 5749 5745 5747 5749 5750 5750 5740 5727 5726 5729 5733 5736 5738 5742 5745 5749 5753 5752 5752 5753 5752 5749
5751 5752 5753 5755 5757 5757 5758 5758 5755 5754 5756 5755 5755 5756 5755 5755 5758 5755 5749 5750 5753 5754 5755 5754 5753 5756 5757 5757 5757 5756 5756 5757 5758 5758 5758 5759 5759 5759 5759 5759 5758 5757 5757 5757 5757 5759 5759 5756 5757 5757 5757 5757 5756 5756 5755 5755 5754 5753 5753 5751 5749 5747 5745 5743 5741 5742 5741 5740 5744 5745 5745 5745 5736 5726 5726 5728 5729 5731 5731 5732 5733 5736 5743 5745 5743 5745 5748 5746
5745 5745 5746 5749 5750 5751 5752 5751 5748 5748 5749 5749 5749 5749 5748 5746 5747 5746 5744 5748 5748 5746 5749 5748 5746 5748 5748 5748 5750 5748 5748 5748 5749 5750 5750 5751 5751 5752 5753 5752 5751 5750 5750 5751 5751 5752 5752 5751 5752 5752 5752 5752 5751 5749 5749 5748 5748 5747 5746 5744 5742 5740 5738 5734 5734 5734 5734 5737 5739 5738 5737 5734 5726 5725 5729 5729 5730 5730 5727 5726 5726 5726 5730 5735 5734 5734 5740 5743
5738 5738 5739 5741 5743 5744 5746 5745 5743 5742 5742 5743 5743 5743 5741 5737 5738 5740 5741 5743 5741 5739 5743 5741 5739 5740 5739 5740 5741 5740 5740 5741 5741 5742 5742 5743 5743 5745 5746 5746 5746 5744 5743 5744 5743 5743 5745 5747 5747 5745 5746 5747 5743 5742 5742 5741 5742 5740 5739 5738 5735 5733 5729 5725 5728 5728 5728 5731 5732 5730 5727 5722 5718 5721 5725 5726 5728 5727 5723 5723 5723 5720 5720 5723 5723 5721 5726 5734
5731 5732 5732 5734 5736 5737 5738 5737 5736 5737 5736 5736 5736 5734 5731 5729 5732 5736 5734 5735 5735 5734 5736 5734 5732 5733 5732 5733 5734 5733 5732 5732 5732 5733 5733 5735 5736 5738 5740 5740 5740 5738 5737 5736 5736 5737 5736 5739 5743 5739 5738 5740 5737 5736 5735 5734 5734 5733 5733 5731 5726 5726 5722 5719 5722 5722 5719 5721 5722 5720 5715 5712 5715 5717 5717 5718 5719 5719 5718 5719 5718 5717 5715 5712 5713 5712 5711 5717
5724 5725 5725 5728 5729 5730 5730 5728 5728 5729 5729 5729 5727 5722 5721 5724 5727 5728 5727 5728 5727 5727 5729 5728 5727 5727 5727 5728 5727 5727 5726 5723 5724 5725 5725 5726 5728 5730 5732 5732 5732 5731 5729 5727 5728 5730 5727 5731 5738 5733 5729 5734 5732 5730 5730 5727 5726 5726 5726 5721 5718 5721 5720 5715 5713 5713 5712 5709 5710 5709 5703 5705 5712 5711 5712 5713 5711 5711 5711 5711 5711 5711 5710 5706 5705 5707 5704 5702
5716 5717 5718 5721 5723 5722 5721 5720 5721 5721 5720 5720 5715 5711 5715 5719 5719 5719 5720 5721 5720 5720 5722 5721 5722 5722 5721 5721 5722 5722 5720 5716 5717 5717 5717 5718 5719 5723 5725 5724 5724 5721 5719 5718 5718 5719 5716 5720 5730 5725 5722 5727 5725 5723 5724 5720 5717 5718 5716 5714 5715 5716 5714 5707 5701 5704 5704 5697 5698 5703 5697 5698 5704 5703 5706 5709 5708 5708 5707 5705 5705 5702 5702 5701 5698 5700 5700 5696
5708 5708 5710 5713 5715 5713 5711 5712 5712 5711 5710 5708 5703 5705 5711 5713 5713 5713 5713 5714 5713 5714 5713 5712 5715 5715 5713 5714 5717 5717 5714 5710 5709 5709 5709 5710 5710 5716 5718 5716 5716 5713 5712 5711 5708 5709 5706 5705 5715 5719 5715 5717 5717 5714 5713 5712 5709 5706 5707 5711 5712 5707 5704 5700 5692 5691 5693 5684 5686 5696 5694 5693 5696 5695 5698 5702 5703 5705 5703 5701 5699 5695 5695 5695 5692 5691 5691 5689
5698 5699 5702 5706 5705 5702 5702 5701 5701 5701 5699 5695 5694 5700 5706 5707 5708 5710 5708 5707 5707 5706 5704 5704 5707 5708 5706 5706 5709 5710 5707 5703 5702 5701 5701 5701 5701 5708 5711 5707 5707 5704 5704 5704 5698 5699 5698 5691 5698 5709 5706 5704 5706 5704 5702 5703 5701 5697 5700 5704 5703 5697 5694 5693 5685 5679 5681 5674 5672 5681 5686 5687 5690 5691 5693 5695 5696 5696 5695 5694 5692 5691 5689 5688 5687 5685 5681 5679
5689 5689 5693 5697 5695 5692 5692 5691 5690 5690 5686 5684 5687 5693 5698 5700 5702 5703 5701 5700 5699 5697 5694 5695 5698 5699 5699 5701 5702 5702 5700 5696 5693 5691 5691 5692 5693 5700 5701 5697 5698 5696 5696 5696 5692 5691 5690 5682 5681 5693 5696 5692 5693 5693 5692 5693 5693 5690 5689 5690 5690 5689 5685 5681 5676 5672 5671 5666 5661 5665 5668 5674 5686 5691 5690 5690 5688 5685 5687 5687 5685 5684 5684 5682 5681 5679 5676 5673
5679 5679 5683 5688 5685 5682 5683 5680 5679 5678 5674 5676 5681 5684 5687 5689 5691 5692 5691 5689 5689 5687 5685 5686 5688 5687 5689 5694 5694 5693 5692 5689 5687 5684 5682 5682 5685 5689 5691 5689 5690 5690 5687 5687 5686 5683 5680 5674 5671 5677 5684 5683 5683 5684 5684 5684 5683 5679 5678 5677 5677 5678 5675 5669 5665 5664 5664 5658 5653 5652 5647 5656 5679 5689 5685 5684 5682 5678 5678 5678 5676 5676 5675 5673 5672 5671 5669 5667
5670 5670 5674 5677 5674 5673 5672 5667 5667 5668 5666 5669 5674 5675 5676 5677 5679 5681 5681 5679 5677 5676 5676 5676 5677 5677 5678 5681 5684 5685 5681 5678 5679 5678 5674 5675 5676 5678 5682 5684 5683 5683 5680 5678 5677 5674 5670 5667 5664 5665 5670 5672 5674 5677 5676 5675 5673 5670 5667 5667 5667 5667 5665 5659 5652 5655 5656 5648 5644 5641 5631 5636 5663 5682 5683 5679 5675 5672 5671 5668 5666 5667 5665 5663 5663 5662 5660 5659
5660 5662 5666 5666 5663 5663 5660 5656 5657 5659 5657 5660 5666 5667 5666 5667 5670 5672 5671 5669 5667 5666 5666 5665 5666 5667 5667 5668 5672 5673 5669 5666 5668 5669 5666 5667 5668 5669 5674 5678 5676 5674 5673 5670 5668 5667 5664 5659 5656 5657 5658 5660 5663 5666 5666 5664 5664 5661 5656 5657 5660 5658 5656 5650 5643 5645 5646 5637 5634 5632 5620 5618 5641 5667 5677 5673 5669 5666 5662 5658 5657 5657 5656 5654 5653 5652 5650 5649
5650 5653 5655 5655 5654 5652 5648 5646 5649 5650 5648 5653 5658 5657 5656 5657 5660 5663 5663 5660 5656 5655 5656 5655 5656 5657 5656 5657 5658 5658 5657 5654 5654 5657 5657 5656 5658 5663 5667 5669 5667 5665 5663 5660 5659 5661 5658 5652 5648 5648 5648 5648 5651 5654 5655 5654 5653 5649 5646 5651 5652 5649 5649 5644 5637 5636 5632 5625 5627 5622 5608 5608 5627 5649 5659 5658 5657 5658 5654 5651 5649 5646 5646 5646 5643 5642 5641 5639
5640 5642 5644 5644 5643 5641 5637 5638 5642 5641 5641 5644 5645 5645 5647 5647 5649 5654 5655 5650 5647 5646 5646 5646 5647 5646 5646 5648 5647 5646 5647 5642 5639 5644 5647 5645 5648 5657 5661 5660 5658 5655 5652 5650 5651 5651 5648 5642 5640 5638 5637 5637 5639 5641 5643 5645 5644 5639 5638 5642 5641 5639 5640 5635 5630 5627 5617 5614 5621 5611 5595 5603 5623 5635 5639 5641 5643 5644 5645 5644 5640 5636 5636 5636 5633 5631 5632 5632
5629 5631 5633 5633 5632 5630 5628 5632 5634 5631 5631 5634 5633 5634 5636 5636 5640 5647 5646 5640 5638 5638 5636 5635 5637 5637 5637 5637 5635 5635 5635 5632 5628 5630 5634 5635 5638 5645 5650 5650 5649 5646 5644 5643 5641 5638 5634 5630 5630 5629 5625 5625 5628 5632 5635 5638 5635 5629 5628 5631 5631 5631 5630 5625 5622 5615 5604 5605 5609 5598 5587 5598 5615 5622 5625 5630 5632 5632 5634 5634 5631 5628 5626 5624 5623 5622 5624 5625
5619 5621 5624 5622 5619 5619 5621 5625 5625 5621 5622 5624 5621 5623 5626 5627 5631 5636 5634 5630 5630 5630 5626 5625 5627 5627 5626 5627 5625 5623 5625 5625 5622 5619 5620 5623 5627 5632 5636 5638 5638 5637 5636 5634 5629 5625 5619 5616 5619 5618 5614 5614 5618 5623 5630 5629 5622 5618 5619 5621 5622 5622 5621 5619 5611 5601 5599 5599 5591 5587 5591 5592 5600 5611 5616 5621 5623 5622 5624 5626 5624 5620 5616 5614 5614 5614 5614 5615
5608 5611 5614 5611 5607 5609 5612 5615 5614 5612 5614 5614 5610 5612 5617 5618 5619 5621 5621 5621 5622 5621 5616 5614 5616 5617 5616 5617 5615 5612 5613 5615 5613 5610 5610 5611 5614 5618 5622 5624 5625 5626 5626 5623 5617 5614 5607 5602 5606 5607 5603 5606 5610 5613 5619 5618 5608 5607 5609 5610 5612 5613 5612 5609 5598 5593 5600 5589 5571 5581 5594 5584 5585 5601 5607 5609 5613 5613 5615 5617 5614 5611 5608 5606 5605 5604 5603 5603
5598 5601 5602 5599 5598 5601 5603 5604 5603 5602 5603 5603 5600 5602 5607 5609 5608 5608 5609 5610 5611 5610 5607 5604 5607 5608 5607 5606 5603 5600 5602 5603 5602 5601 5601 5599 5600 5603 5607 5613 5615 5614 5614 5610 5607 5606 5597 5589 5595 5596 5590 5594 5599 5600 5605 5604 5597 5595 5595 5595 5599 5602 5601 5596 5588 5588 5591 5575 5561 5575 5584 5573 5575 5588 5591 5596 5602 5600 5600 5602 5601 5600 5599 5597 5596 5595 5592 5589
5589 5591 5591 5588 5589 5594 5594 5592 5592 5591 5592 5592 5590 5591 5596 5598 5597 5597 5597 5598 5598 5599 5598 5595 5595 5596 5595 5595 5594 5590 5591 5592 5590 5591 5591 5589 5589 5590 5591 5597 5602 5602 5602 5598 5596 5596 5588 5580 5585 5586 5579 5580 5585 5586 5589 5589 5585 5583 5582 5583 5586 5586 5586 5584 5579 5580 5578 5565 5559 5567 5564 5558 5565 5573 5575 5583 5588 5585 5582 5582 5584 5587 5588 5586 5582 5578 5575 5572
5578 5579 5580 5578 5580 5585 5584 5581 5581 5581 5581 5582 5581 5582 5585 5585 5586 5587 5587 5587 5585 5586 5588 5585 5582 5584 5585 5586 5585 5582 5581 5581 5579 5580 5581 5579 5580 5580 5578 5579 5585 5587 5588 5587 5585 5584 5579 5573 5577 5578 5568 5565 5570 5573 5574 5575 5572 5569 5570 5573 5574 5572 5570 5570 5569 5569 5566 5557 5555 5556 5547 5544 5556 5564 5564 5567 5570 5569 5568 5568 5571 5573 5572 5568 5563 5560 5560 5560
5568 5568 5570 5569 5570 5574 5574 5571 5571 5570 5571 5574 5573 5570 5572 5573 5575 5576 5576 5577 5575 5573 5576 5575 5572 5574 5576 5576 5576 5573 5571 5572 5570 5570 5572 5570 5570 5571 5569 5569 5572 5572 5574 5576 5573 5572 5570 5565 5567 5567 5557 5553 5560 5561 5560 5562 5559 5554 5556 5563 5566 5562 5558 5557 5558 5558 5555 5548 5545 5543 5536 5535 5545 5551 5549 5549 5552 5554 5555 5558 5559 5557 5553 5550 5548 5548 5549 5549
5558 5557 5558 5558 5559 5564 5564 5561 5562 5560 5561 5567 5564 5558 5561 5564 5565 5565 5565 5565 5564 5563 5564 5564 5562 5563 5565 5564 5565 5563 5561 5561 5561 5562 5563 5561 5560 5562 5562 5563 5564 5563 5563 5565 5563 5563 5563 5558 5557 5557 5547 5544 5551 5551 5548 5549 5542 5536 5544 5554 5556 5553 5550 5547 5546 5547 5547 5543 5535 5531 5529 5529 5531 5532 5532 5536 5539 5542 5544 5544 5540 5540 5542 5541 5539 5538 5537 5537